Tracking 23610 objects as of 21-Sep-2021
HD Live streaming from Space Station
objects crossing your sky now

STARLINK-1190

Track STARLINK-1190 now!
10-day predictions
STARLINK-1190 is classified as:


NORAD ID: 45083
Int'l Code: 2020-006AR
Perigee: 553.4 km
Apogee: 555.3 km
Inclination: 53.1 °
Period: 95.6 minutes
Semi major axis: 6925 km
RCS: Unknown
Launch date: January 29, 2020
Source: United States (US)
Launch site: AIR FORCE EASTERN TEST RANGE (AFETR)
aabbcc
Your satellite tracking list
Your tracking list is empty




NASA's NSSDC Master Catalog

Two Line Element Set (TLE):
1 45083U 20006AR  21263.44276330  .00000573  00000-0  57348-4 0  9997
2 45083  53.0554  49.5763 0001365 100.0891 260.0252 15.06399607 90598
Source of the keplerian elements: AFSPC